"2006/01/01",1024.1,1027.9,1018.4
"2006/01/02",1010.2,1018.4,1005.4
"2006/01/03",1005.2,1008.7,1002.0
"2006/01/04",1011.6,1013.5,1008.4
"2006/01/05",1013.9,1017.4,1011.3
"2006/01/06",1015.8,1019.2,1011.7
"2006/01/07",1012.2,1016.0,1009.8
"2006/01/08",1018.5,1022.0,1015.9
"2006/01/09",1023.8,1026.1,1021.9
"2006/01/10",1019.1,1022.1,1016.9
"2006/01/11",1022.3,1026.6,1017.9
"2006/01/12",1028.5,1031.1,1026.3
"2006/01/13",1028.1,1032.1,1021.2
"2006/01/14",1009.9,1021.3, 996.9
"2006/01/15",1013.8,1020.0,1002.2
"2006/01/16",1018.7,1021.7,1014.3
"2006/01/17",1017.4,1021.4,1013.1
"2006/01/18",1020.4,1022.6,1018.7
"2006/01/19",1019.6,1022.6,1017.3
"2006/01/20",1022.1,1024.2,1019.4
"2006/01/21",1012.9,1019.5,1006.2
"2006/01/22",1006.2,1010.2,1002.2
"2006/01/23",1011.9,1016.8,1005.5
"2006/01/24",1018.5,1022.7,1015.4
"2006/01/25",1020.6,1023.4,1017.9
"2006/01/26",1015.3,1018.6,1012.5
"2006/01/27",1011.4,1014.6,1007.8
"2006/01/28",1016.7,1023.2,1011.0
"2006/01/29",1027.6,1029.8,1023.1
"2006/01/30",1023.6,1026.0,1021.6
"2006/01/31",1025.1,1027.2,1023.3
"2006/02/01",1013.9,1024.7,1001.8
"2006/02/02",1018.3,1020.9,1010.0
"2006/02/03",1013.6,1018.3,1008.5
"2006/02/04",1021.7,1023.8,1018.0
"2006/02/05",1024.3,1028.2,1021.1
"2006/02/06",1027.3,1030.3,1021.7
"2006/02/07",1008.1,1021.9,1000.8
"2006/02/08",1009.2,1013.9,1004.4
"2006/02/09",1020.1,1023.1,1013.8
"2006/02/10",1015.2,1021.8,1010.2
"2006/02/11",1010.7,1013.8,1008.6
"2006/02/12",1014.4,1020.9,1008.7
"2006/02/13",1018.3,1021.7,1014.8
"2006/02/14",1014.3,1018.1,1010.3
"2006/02/15",1013.3,1016.7,1010.3
"2006/02/16",1013.6,1015.9,1011.2
"2006/02/17",1015.1,1021.9,1011.5
"2006/02/18",1025.1,1027.1,1021.6
"2006/02/19",1025.9,1027.4,1024.2
"2006/02/20",1025.4,1027.9,1022.8
"2006/02/21",1023.8,1025.3,1022.7
"2006/02/22",1019.9,1024.2,1016.8
"2006/02/23",1020.5,1026.3,1016.2
"2006/02/24",1029.3,1032.8,1026.3
"2006/02/25",1033.3,1035.0,1031.8
"2006/02/26",1020.0,1032.3,1005.8
"2006/02/27",1021.0,1029.3,1011.7
"2006/02/28",1028.8,1031.6,1024.2
"2006/03/01",1010.0,1024.4, 997.4
"2006/03/02",1004.1,1009.3, 998.2
"2006/03/03",1014.0,1020.0,1009.3
"2006/03/04",1023.6,1026.1,1019.9
"2006/03/05",1024.6,1026.8,1021.6
"2006/03/06",1017.4,1022.1,1013.5
"2006/03/07",1019.8,1022.5,1016.7
"2006/03/08",1017.4,1022.4,1014.6
"2006/03/09",1027.0,1029.7,1022.3
"2006/03/10",1021.0,1026.9,1016.0
"2006/03/11",1013.2,1016.3,1008.3
"2006/03/12",1002.6,1008.6, 997.6
"2006/03/13",1006.5,1010.6,1001.5
"2006/03/14",1009.7,1014.0,1005.7
"2006/03/15",1015.8,1018.5,1014.0
"2006/03/16",1008.9,1015.7, 991.8
"2006/03/17", 999.2,1013.3, 985.7
"2006/03/18",1010.5,1015.3,1002.3
"2006/03/19", 998.8,1006.5, 993.8
"2006/03/20",1009.3,1011.6,1006.4
"2006/03/21",1013.0,1016.1,1009.7
"2006/03/22",1016.9,1020.1,1010.3
"2006/03/23",1003.3,1010.4, 999.1
"2006/03/24",1010.8,1017.0,1004.0
"2006/03/25",1020.1,1022.1,1016.7
"2006/03/26",1015.7,1022.0,1011.2
"2006/03/27",1012.8,1014.8,1011.2
"2006/03/28",1002.6,1012.0, 991.1
"2006/03/29", 997.4,1004.1, 989.6
"2006/03/30",1002.2,1005.3, 996.7
"2006/03/31",1008.1,1013.5,1003.2
"2006/04/01",1014.1,1016.5,1012.3
"2006/04/02",1000.9,1012.8, 988.1
"2006/04/03", 998.4,1010.4, 990.2
"2006/04/04",1011.2,1014.8,1008.7
"2006/04/05",1003.6,1009.1, 998.4
"2006/04/06",1012.8,1015.5,1006.8
"2006/04/07",1013.8,1015.4,1012.7
"2006/04/08",1006.8,1013.0,1001.2
"2006/04/09",1017.8,1025.5,1007.3
"2006/04/10",1025.3,1026.9,1024.1
"2006/04/11",1020.0,1024.3,1013.7
"2006/04/12",1008.6,1013.8,1005.5
"2006/04/13",1008.4,1010.6,1006.8
"2006/04/14",1016.9,1023.2,1010.3
"2006/04/15",1021.5,1024.8,1015.9
"2006/04/16",1008.3,1015.9,1004.0
"2006/04/17",1014.1,1019.8,1008.1
"2006/04/18",1020.2,1021.8,1018.6
"2006/04/19",1019.3,1023.1,1012.6
"2006/04/20",1000.7,1012.7, 991.8
"2006/04/21", 998.4,1003.5, 996.3
"2006/04/22",1007.3,1010.3,1003.3
"2006/04/23",1008.6,1010.8,1004.8
"2006/04/24",1003.0,1006.3,1000.9
"2006/04/25",1008.1,1013.6,1005.7
"2006/04/26",1014.2,1016.6,1012.5
"2006/04/27",1009.5,1012.7,1006.5
"2006/04/28",1011.2,1013.9,1007.8
"2006/04/29",1011.8,1013.9,1009.3
"2006/04/30",1007.4,1010.0,1004.4
"2006/05/01",1003.1,1005.5,1000.5
"2006/05/02",1006.7,1012.8,1003.9
"2006/05/03",1018.1,1022.3,1012.4
"2006/05/04",1022.4,1023.8,1020.6
"2006/05/05",1020.1,1023.1,1017.6
"2006/05/06",1017.0,1019.2,1014.3
"2006/05/07",1014.4,1015.7,1013.3
"2006/05/08",1018.4,1023.3,1013.9
"2006/05/09",1023.1,1024.9,1021.3
"2006/05/10",1019.6,1023.7,1015.1
"2006/05/11",1013.7,1019.6,1011.6
"2006/05/12",1023.3,1026.0,1019.1
"2006/05/13",1016.2,1022.4,1006.1
"2006/05/14",1008.9,1017.0,1004.6
"2006/05/15",1021.2,1023.3,1016.8
"2006/05/16",1023.0,1024.4,1021.7
"2006/05/17",1022.2,1024.0,1020.7
"2006/05/18",1018.3,1020.7,1015.4
"2006/05/19",1010.1,1015.8,1001.1
"2006/05/20", 999.5,1006.6, 995.0
"2006/05/21",1014.3,1020.2,1006.5
"2006/05/22",1017.8,1020.2,1014.4
"2006/05/23",1008.4,1014.5,1004.9
"2006/05/24",1008.2,1015.2,1004.3
"2006/05/25",1019.9,1023.9,1014.9
"2006/05/26",1022.4,1024.1,1020.2
"2006/05/27",1016.5,1020.3,1011.4
"2006/05/28",1001.6,1011.4, 997.0
"2006/05/29",1003.4,1005.1,1001.5
"2006/05/30",1008.0,1011.7,1004.7
"2006/05/31",1012.0,1013.7,1010.5
"2006/06/01",1013.5,1016.1,1011.2
"2006/06/02",1012.1,1015.1,1009.7
"2006/06/03",1013.8,1015.9,1011.2
"2006/06/04",1014.4,1015.7,1012.4
"2006/06/05",1009.3,1012.7,1007.0
"2006/06/06",1008.0,1009.3,1006.4
"2006/06/07",1008.9,1013.1,1005.8
"2006/06/08",1011.1,1013.1,1007.0
"2006/06/09", 998.1,1008.0, 990.6
"2006/06/10",1003.8,1009.8, 997.2
"2006/06/11",1010.4,1012.0,1009.0
"2006/06/12",1015.2,1017.7,1011.1
"2006/06/13",1016.1,1017.7,1014.7
"2006/06/14",1015.6,1016.8,1013.8
"2006/06/15",1013.5,1015.6,1011.8
"2006/06/16",1008.4,1012.2,1005.7
"2006/06/17",1009.2,1011.0,1007.6
"2006/06/18",1007.2,1008.6,1005.3
"2006/06/19",1010.0,1012.8,1007.5
"2006/06/20",1012.7,1013.7,1011.4
"2006/06/21",1011.0,1013.0,1008.2
"2006/06/22",1008.7,1011.1,1006.2
"2006/06/23",1006.1,1007.8,1004.7
"2006/06/24",1010.2,1013.4,1007.1
"2006/06/25",1012.4,1013.6,1011.0
"2006/06/26",1008.9,1011.4,1007.3
"2006/06/27",1005.3,1007.5,1002.9
"2006/06/28",1006.7,1008.3,1005.1
"2006/06/29",1011.1,1013.3,1008.2
"2006/06/30",1010.5,1013.1,1006.8
"2006/07/01",1007.0,1008.9,1005.7
"2006/07/02",1003.5,1006.8, 999.2
"2006/07/03",1002.9,1003.7,1001.5
"2006/07/04",1004.6,1007.6,1002.2
"2006/07/05",1003.5,1007.5, 996.5
"2006/07/06", 999.5,1003.2, 997.6
"2006/07/07",1005.3,1008.1,1002.5
"2006/07/08",1011.4,1014.7,1008.0
"2006/07/09",1015.8,1017.0,1014.3
"2006/07/10",1015.2,1016.3,1013.9
"2006/07/11",1013.2,1015.4,1011.6
"2006/07/12",1010.1,1011.8,1008.6
"2006/07/13",1007.9,1008.8,1006.8
"2006/07/14",1009.5,1011.4,1007.9
"2006/07/15",1009.1,1010.9,1006.6
"2006/07/16",1007.1,1008.7,1005.7
"2006/07/17",1006.6,1008.7,1004.3
"2006/07/18",1006.9,1009.4,1002.7
"2006/07/19",1003.4,1008.0, 999.8
"2006/07/20",1007.3,1008.5,1006.1
"2006/07/21",1003.5,1006.3,1000.7
"2006/07/22",1004.2,1006.8,1001.9
"2006/07/23",1006.0,1008.3,1004.7
"2006/07/24",1007.4,1009.8,1005.7
"2006/07/25",1012.1,1016.2,1009.1
"2006/07/26",1016.0,1018.0,1014.3
"2006/07/27",1012.7,1014.5,1011.3
"2006/07/28",1010.3,1012.5,1007.5
"2006/07/29",1009.8,1012.7,1007.3
"2006/07/30",1013.8,1016.0,1012.0
"2006/07/31",1015.3,1016.4,1013.8
"2006/08/01",1016.3,1017.5,1015.0
"2006/08/02",1017.5,1018.6,1016.3
"2006/08/03",1017.0,1018.5,1015.2
"2006/08/04",1014.0,1016.2,1011.5
"2006/08/05",1012.7,1013.5,1011.6
"2006/08/06",1012.3,1013.5,1010.6
"2006/08/07",1011.4,1012.7,1009.7
"2006/08/08",1011.8,1013.4,1010.6
"2006/08/09",1007.7,1011.6,1004.1
"2006/08/10",1008.6,1010.2,1007.6
"2006/08/11",1009.8,1011.0,1008.1
"2006/08/12",1008.8,1010.3,1005.9
"2006/08/13",1007.9,1009.2,1005.9
"2006/08/14",1007.3,1008.4,1006.2
"2006/08/15",1005.6,1006.6,1004.3
"2006/08/16",1004.5,1005.5,1003.6
"2006/08/17",1004.2,1005.5,1002.5
"2006/08/18",1005.5,1007.1,1004.3
"2006/08/19",1008.0,1010.0,1006.4
"2006/08/20",1011.0,1012.5,1009.7
"2006/08/21",1011.0,1012.1,1009.2
"2006/08/22",1009.7,1010.9,1007.7
"2006/08/23",1009.2,1010.9,1008.0
"2006/08/24",1011.1,1012.5,1009.8
"2006/08/25",1013.9,1015.5,1011.9
"2006/08/26",1015.9,1016.9,1014.8
"2006/08/27",1015.5,1016.6,1014.0
"2006/08/28",1012.4,1014.1,1010.9
"2006/08/29",1008.7,1011.1,1006.6
"2006/08/30",1005.4,1007.4,1004.0
"2006/08/31",1004.2,1005.4,1002.7
"2006/09/01",1005.1,1006.2,1003.6
"2006/09/02",1007.4,1009.1,1005.0
"2006/09/03",1009.1,1010.8,1008.0
"2006/09/04",1008.4,1010.6,1005.5
"2006/09/05",1001.9,1005.6, 998.7
"2006/09/06",1008.1,1010.3,1003.9
"2006/09/07",1011.7,1014.0,1009.2
"2006/09/08",1015.6,1017.1,1013.7
"2006/09/09",1015.6,1017.0,1014.2
"2006/09/10",1011.9,1014.5,1009.3
"2006/09/11",1015.3,1018.2,1011.6
"2006/09/12",1019.9,1022.0,1017.8
"2006/09/13",1019.3,1021.1,1016.4
"2006/09/14",1015.5,1016.9,1014.2
"2006/09/15",1018.3,1019.7,1016.4
"2006/09/16",1017.5,1019.4,1015.5
"2006/09/17",1014.1,1015.6,1012.1
"2006/09/18",1007.6,1012.2,1005.0
"2006/09/19",1007.2,1009.7,1006.0
"2006/09/20",1012.4,1014.9,1009.5
"2006/09/21",1015.2,1016.4,1014.3
"2006/09/22",1017.5,1018.8,1015.7
"2006/09/23",1017.5,1019.3,1014.5
"2006/09/24",1013.5,1016.4,1011.3
"2006/09/25",1017.4,1018.9,1015.9
"2006/09/26",1015.9,1018.6,1010.3
"2006/09/27",1007.1,1010.6,1001.7
"2006/09/28",1011.9,1015.9,1008.0
"2006/09/29",1017.0,1018.2,1015.1
"2006/09/30",1017.7,1019.5,1016.3
"2006/10/01",1019.7,1021.3,1018.1
"2006/10/02",1013.7,1018.2,1011.1
"2006/10/03",1012.7,1014.6,1011.3
"2006/10/04",1014.7,1016.2,1013.0
"2006/10/05",1011.3,1014.1,1005.5
"2006/10/06", 995.2,1005.8, 987.8
"2006/10/07", 988.9, 994.9, 985.7
"2006/10/08",1001.4,1010.4, 994.7
"2006/10/09",1016.2,1020.6,1010.3
"2006/10/10",1020.7,1022.1,1019.5
"2006/10/11",1019.2,1020.8,1017.5
"2006/10/12",1018.0,1019.6,1016.8
"2006/10/13",1018.5,1019.0,1018.2
"2006/10/14","  * ","  * ","  * "
"2006/10/15","  * ","  * ","  * "
"2006/10/16","  * ","  * ","  * "
"2006/10/17","  * ","  * ","  * "
"2006/10/18","  * ","  * ","  * "
"2006/10/19","  * ","  * ","  * "
"2006/10/20","  * ","  * ","  * "
"2006/10/21","  * ","  * ","  * "
"2006/10/22","  * ","  * ","  * "
"2006/10/23",1015.2,1015.9,1014.3
"2006/10/24",1013.6,1015.6,1011.4
"2006/10/25",1017.4,1019.4,1014.8
"2006/10/26",1020.4,1022.4,1018.7
"2006/10/27",1021.1,1022.3,1019.9
"2006/10/28",1021.2,1023.6,1017.9
"2006/10/29",1015.9,1018.1,1013.4
"2006/10/30",1020.9,1022.6,1017.0
"2006/10/31",1017.2,1021.4,1013.7
"2006/11/01",1015.6,1017.6,1013.3
"2006/11/02",1015.9,1017.5,1013.9
"2006/11/03",1016.7,1019.0,1014.8
"2006/11/04",1018.9,1020.5,1017.8
"2006/11/05",1017.8,1019.5,1016.0
"2006/11/06",1014.6,1017.8,1009.9
"2006/11/07",1007.3,1017.2, 999.9
"2006/11/08",1022.0,1024.0,1017.1
"2006/11/09",1023.5,1026.1,1021.3
"2006/11/10",1019.8,1022.1,1017.2
"2006/11/11",1007.7,1017.3, 997.5
"2006/11/12",1005.9,1012.2, 997.5
"2006/11/13",1014.2,1016.1,1011.5
"2006/11/14",1009.4,1013.9,1004.3
"2006/11/15",1010.8,1014.2,1002.9
"2006/11/16",1015.4,1019.6,1012.7
"2006/11/17",1021.8,1023.9,1019.3
"2006/11/18",1025.5,1027.3,1023.3
"2006/11/19",1023.9,1027.4,1017.7
"2006/11/20",1010.6,1017.8,1006.7
"2006/11/21",1015.1,1018.3,1011.5
"2006/11/22",1018.9,1020.6,1017.4
"2006/11/23",1021.1,1023.5,1019.9
"2006/11/24",1024.0,1028.7,1019.7
"2006/11/25",1029.6,1031.8,1027.4
"2006/11/26",1022.2,1027.5,1015.0
"2006/11/27",1004.8,1015.0,1001.5
"2006/11/28",1009.7,1014.9,1003.3
"2006/11/29",1014.5,1016.9,1012.1
"2006/11/30",1015.2,1017.2,1012.6
"2006/12/01",1015.0,1017.5,1012.7
"2006/12/02",1009.6,1012.8,1005.8
"2006/12/03",1015.9,1019.5,1010.0
"2006/12/04",1021.7,1026.7,1019.1
"2006/12/05",1026.5,1030.1,1023.8
"2006/12/06",1029.9,1032.6,1024.5
"2006/12/07",1023.9,1029.9,1019.6
"2006/12/08",1020.8,1023.4,1018.3
"2006/12/09",1019.5,1023.3,1013.8
"2006/12/10",1016.2,1021.1,1012.7
"2006/12/11",1025.7,1029.0,1021.0
"2006/12/12",1025.8,1028.3,1023.3
"2006/12/13",1020.0,1024.0,1015.7
"2006/12/14",1017.4,1020.7,1014.9
"2006/12/15",1016.6,1020.5,1012.6
"2006/12/16",1017.1,1020.3,1012.5
"2006/12/17",1007.8,1013.1,1003.8
"2006/12/18",1023.1,1032.1,1009.0
"2006/12/19",1033.3,1034.6,1031.6
"2006/12/20",1031.7,1034.0,1028.4
"2006/12/21",1024.2,1028.5,1020.3
"2006/12/22",1017.7,1020.4,1015.7
"2006/12/23",1016.1,1018.7,1013.9
"2006/12/24",1023.0,1028.1,1015.8
"2006/12/25",1030.5,1032.1,1028.0
"2006/12/26",1019.9,1031.3, 999.6
"2006/12/27", 993.9,1002.8, 988.1
"2006/12/28",1001.4,1004.8, 997.7
"2006/12/29",1008.2,1015.8,1000.8
"2006/12/30",1021.4,1025.1,1015.7
"2006/12/31",1028.8,1031.2,1024.8
